Regional Weather Roundup
Issued by NWS

Home | Current Version | Previous Version | Graphics & Text | Print | Product List | Glossary On
Versions: 1 2 3 4 5 6 7 8 9 10 11 12 13 14 15 16 17 18 19 20 21 22 23 24 25 26 27 28 29 30 31 32 33 34 35 36 37 38 39 40 41 42 43 44 45 46 47 48 49 50
915
ASUS45 KPSR 290510
RWRAZ

ARIZONA HOURLY REGIONAL WEATHER ROUNDUP
NATIONAL WEATHER SERVICE PHOENIX AZ
1000 PM MST SUN AUG 28 2016

NOTE: FAIR INDICATES FEW OR NO CLOUDS BELOW 12,000 FEET WITH NO
SIGNIFICANT WEATHER AND/OR OBSTRUCTIONS TO VISIBILITY.

AZZ001>003-036-290600-
NORTHWEST ARIZONA

CITY           SKY/WX    TMP DP  RH WIND       PRES   REMARKS
BULLHEAD CITY  CLEAR     93  45  18 CALM      29.88R
KINGMAN        CLEAR     73  52  47 SE9       30.11R
$$

AZZ004>008-015-016-018-290600-
NORTH CENTRAL ARIZONA

CITY           SKY/WX    TMP DP  RH WIND       PRES   REMARKS
GRAND CANYON   CLEAR     53  48  83 CALM      30.34F
PRESCOTT       CLEAR     64  52  64 S8        30.22S
FLAGSTAFF      CLEAR     50  45  83 CALM      30.35S
PAYSON         CLEAR     68  41  37 NE7       30.25S
PAGE           CLEAR     74  43  32 SW5       30.15F
$$

AZZ009>014-017-290600-
NORTHEAST ARIZONA

CITY           SKY/WX    TMP DP  RH WIND       PRES   REMARKS
WINSLOW        CLEAR     58  52  80 W7        30.23R
SAINT JOHNS    CLEAR     60  46  59 CALM      30.26R
SHOW LOW       CLEAR     54  41  62 CALM      30.32S
$$

AZZ023-290600-
GREATER PHOENIX AREA

CITY           SKY/WX    TMP DP  RH WIND       PRES   REMARKS
PHOENIX        CLEAR     92  47  21 SW3       29.89R
BUCKEYE        CLEAR     86  45  23 E3        29.91R
LUKE AFB       CLEAR     88  51  27 CALM      29.89R
DEER VALLEY    CLEAR     86  49  27 CALM      29.92R
SCOTTSDALE     CLEAR     89  49  25 NE5       29.94R
MESA-GATEWAY   CLEAR     84  48  28 E3        29.93R
$$

AZZ027-028-290600-
SOUTHWEST MARICOPA COUNTY AND PINAL COUNTY

CITY           SKY/WX    TMP DP  RH WIND       PRES   REMARKS
CASA GRANDE    CLEAR     84  43  23 N5        29.94S
GILA BEND      FAIR      87  38  17 E8        29.87S
$$

AZZ503-504-507>509-290600-
SOUTHEAST ARIZONA

CITY           SKY/WX    TMP DP  RH WIND       PRES   REMARKS
TUCSON         CLEAR     83  39  21 NW6       30.02S
DAVIS-MONTHAN  CLEAR     80  42  25 W2        30.01S
NOGALES        CLEAR     71  40  32 NW6       30.10R
SIERRA VISTA   CLEAR     72  37  27 W10       30.17R
DOUGLAS        CLEAR     66  42  41 N10       30.11R
SAFFORD        CLEAR     79  40  24 NW7       30.02R
$$

AZZ020-021-025-026-031-290600-
SOUTHWEST ARIZONA

CITY           SKY/WX    TMP DP  RH WIND       PRES   REMARKS
YUMA           CLEAR     92  46  20 SW6       29.85R
$$

CAZ031-033-041-043-047-048-061-290600-
SOUTHERN CALIFORNIA

CITY           SKY/WX    TMP DP  RH WIND       PRES   REMARKS
DOWNTOWN L.A.  CLEAR     70  59  68 CALM      29.96R
L.A. AIRPORT   CLEAR     68  61  78 SW5       29.97R
SAN DIEGO      PTCLDY    70  64  81 W5        30.00R
BURBANK        CLEAR     72  59  63 SE9       29.97R
ONTARIO        CLEAR     74  55  51 W5        29.99R
RIVERSIDE      CLEAR     75  54  47 W5        29.99R
PALM SPRINGS   CLEAR     96  50  20 N3        29.89R
EL CENTRO NAS  CLEAR     89  49  25 S3        29.84R
IMPERIAL       CLEAR     91  48  22 S3        29.82R
BLYTHE         CLEAR     94  50  22 W6        29.85S
NEEDLES        CLEAR     91  59  33 SW56      29.89R
$$

NVZ020-UTZ003-290600-
SOUTHERN NEVADA-UTAH

CITY           SKY/WX    TMP DP  RH WIND       PRES   REMARKS
LAS VEGAS      CLEAR     89  45  21 SW5       29.97S
SALT LAKE CITY CLEAR     75  32  20 S7        30.15S
$$

NMZ009-TXZ055-290600-
NEW MEXICO-WEST TEXAS

CITY           SKY/WX    TMP DP  RH WIND       PRES   REMARKS
ALBUQUERQUE    PTCLDY    64  42  44 E3        30.25R
EL PASO        PTCLDY    76  58  53 CALM      30.11R
$$


........................KEY........................
SKY/WX - SKY CONDITION/WEATHER
TMP    - TEMPERATURE IN FAHRENHEIT
DP     - DEW POINT IN FAHRENHEIT
RH     - RELATIVE HUMIDITY IN PERCENT
WIND   - DIRECTION AND SPEED IN MILES PER HOUR (MPH)
VRB    - VARIABLE WIND DIRECTION
PRES   - MEAN SEA LEVEL PRESSURE IN INCHES OF MERCURY
         F - FALLING PRESSURE   R - RISING PRESSURE
         S - STEADY PRESSURE
VSB    - VISIBILITY IN MILES
HX     - HEAT INDEX IN FAHRENHEIT
WCI    - WIND CHILL INDEX IN FAHRENHEIT
TC     - TEMPERATURE IN CELSIUS WHICH IS ALSO KNOWN AS
         TEMPERATURE IN CENTIGRADE
AFB    - AIR FORCE BASE
         LUKE AFB IS LUKE AIR FORCE BASE
         DAVIS-MONTHAN IS DAVIS-MONTHAN AIR FORCE BASE
NAS    - NAVAL AIR STATION
         EL CENTRO NAS IS EL CENTRO NAVAL AIR STATION
N/A    - NOT AVAILABLE





USA.gov is the U.S. government's official web portal to all federal, state and local government web resources and services.